Overview Statistics Trail Chart Weather Telemetry Raw packets
 

This is the latest recevied weather packets stored in our database for station/object KF7SOJ. If no packets are shown the sender has not sent any weather packets the latest 10 day(s).

<< 89 90 91 92 93 94 95 >>
Time Temp. Humidity Pressure Rain* Wind** Luminosity Snow
1787957208 25.56° C 43% 931.3 hPa 0 mm - 550 W/m² -
1787956903 25.56° C 43% 931 hPa 0 mm - 561 W/m² -
1787956603 25° C 45% 931.1 hPa 0 mm - 591 W/m² -
1787956297 25° C 46% 931.4 hPa 0 mm - 568 W/m² -
1787955993 23.89° C 49% 931.5 hPa 0 mm - 576 W/m² -
1787955688 23.33° C 51% 931.4 hPa 0 mm - 317 W/m² -
1787955384 22.78° C 53% 931.7 hPa 0 mm - 202 W/m² -
1787955083 22.78° C 54% 931.9 hPa 0 mm - 156 W/m² -
1787954779 22.78° C 55% 931.9 hPa 0 mm - 118 W/m² -
1787954475 22.78° C 54% 931.8 hPa 0 mm - 91 W/m² -
1787954174 22.78° C 55% 931.9 hPa 0 mm - 103 W/m² -
1787953874 22.78° C 55% 932 hPa 0 mm - 88 W/m² -
1787953568 22.78° C 54% 932.2 hPa 0 mm - 85 W/m² -
1787953268 22.78° C 54% 932.2 hPa 0 mm - 78 W/m² -
1787952966 22.78° C 53% 932 hPa 0 mm - 76 W/m² -
1787952661 22.78° C 52% 932.3 hPa 0 mm - 62 W/m² -
1787952360 22.78° C 51% 932.4 hPa 0 mm - 66 W/m² -
1787952057 22.78° C 52% 932.5 hPa 0 mm - 66 W/m² -
1787951756 22.78° C 52% 932.6 hPa 0 mm - 85 W/m² -
1787951452 22.78° C 53% 932.6 hPa 0 mm - 112 W/m² -
1787951148 22.78° C 52% 932.6 hPa 0 mm - 125 W/m² -
1787950843 22.78° C 53% 932.8 hPa 0 mm - 156 W/m² -
1787950538 23.33° C 56% 932.9 hPa 0 mm - 222 W/m² -
1787950235 22.78° C 56% 932.9 hPa 0 mm - 261 W/m² -
1787949939 22.78° C 55% 932.9 hPa 0 mm - 234 W/m² -

* Rain latest hour (hover to see other rain measurements)
** Current wind speed in m/s (hover to see current wind gust speed)